Regional Weather Roundup
Issued by NWS Charleston, SC

Home | Current Version | Previous Version | Text Only | Print | Product List | Glossary On
Versions: 1 2 3 4 5 6 7 8 9 10 11 12 13 14 15 16 17 18 19 20 21 22 23 24 25 26 27 28 29 30 31 32 33 34 35 36 37 38 39 40 41 42 43 44 45 46 47 48 49 50
000
ASUS42 KCHS 091727
RWRCHS

REGIONAL WEATHER ROUNDUP
NATIONAL WEATHER SERVICE CHARLESTON SC
1200 PM EST TUE FEB 09 2016

NOTE: "FAIR" INDICATES FEW OR NO CLOUDS BELOW 12,000 FEET WITH NO
SIGNIFICANT WEATHER AND/OR OBSTRUCTIONS TO VISIBILITY.

NOT ALL STATIONS ARE QUALITY CONTROLLED BY THE NATIONAL
WEATHER SERVICE. USE DATA WITH CAUTION...ESPECIALLY
DEWPOINT OBSERVATIONS.

NOTICE: OBSERVATIONS FOR THE SAVANNAH-HILTON HEAD INTERNATIONAL AIRPORT
/KSAV/ HAVE BEEN TEMPORARILY REMOVED DUE TO AN ERRONEOUS TEMPERATURE
SENSOR. THE OBSERVATION WILL BE REINTRODUCED ONCE REPAIRS ARE COMPLETE.

SCZ027-030-031-034>040-042>050-091800-
...SOUTHEAST SOUTH CAROLINA...

CITY           SKY/WX    TMP DP  RH WIND       PRES   REMARKS
N CHARLESTON   PTSUNNY   46  24  42 W20G26    29.80F
WATERFRONT PRK   N/A     45  26  47 W7G20     29.66F
MOUNT PLEASANT PTSUNNY   46  28  49 W16G24    29.80F
JOHNS ISLAND   CLOUDY    46  27  46 W15G25    29.81S
PINOPOLIS        N/A     43  28  56 W20       29.71F
MONCKS CORNER  CLOUDY    41  21  45 W9G16     29.79F
SUMMERVILLE    CLOUDY    43  30  61 W13       29.81F
BEAUFORT MCAS  CLOUDY    45  25  45 W20G28    29.85S
BEAUFORT ARPT  CLOUDY    45  27  49 W22G30    29.83F
HILTON HEAD IS PTSUNNY   46  27  46 SW17G29   29.86F
WALTERBORO     CLOUDY    45  28  53 W17       29.82S
ALLENDALE      CLOUDY    43  27  52 VRB7G16   29.82F

...SOUTHERN MIDLANDS AND PEE DEE...

CITY           SKY/WX    TMP DP  RH WIND       PRES   REMARKS
GEORGETOWN     NOT AVBL
KINGSTREE      NOT AVBL
ORANGEBURG     CLOUDY    44  22  41 W20G29    29.80F
BARNWELL       CLOUDY    43  28  56 W12G20    29.82F
AIKEN          CLOUDY    37  23  56 W15G28    29.83F WCI  28
MANNING        CLOUDY    41  21  45 SW9G23    29.78F
COLUMBIA       CLOUDY    41  23  48 W21G28    29.80S
SUMTER         CLOUDY    42  23  47 W21G26    29.75F
FLORENCE       CLOUDY    43  25  49 W15G23    29.75F
MYRTLE BEACH   PTSUNNY   45  21  39 W21G29    29.78F
N MYRTLE BEACH MOSUNNY   45  24  43 W18G29    29.74F

$$

GAZ063-065-086>088-099>101-113>116-118-119-134>141-150-091800-
...SOUTHEAST GEORGIA...

CITY           SKY/WX    TMP DP  RH WIND       PRES   REMARKS
SAVANNAH ARPT  PTSUNNY   44  25  47 W23G31    29.87F
HUNTER AAF     CLOUDY    47  26  43 W23G31    29.84F
FORT STEWART   CLOUDY    44  25  47 W21G26    29.87F
STATESBORO     CLOUDY    48  15  26 W18G30    29.86F
SYLVANIA       CLOUDY    45  28  50 W12G22    29.85F
CLAXTON        CLOUDY    45  30  56 SW14G28   29.88F

...CSRA...CENTRAL AND FAR SOUTHEAST GEORGIA...

CITY           SKY/WX    TMP DP  RH WIND       PRES   REMARKS
THOMSON        CLOUDY    39  28  65 W8        29.88F WCI  34
AUGUSTA-BUSH   CLOUDY    41  24  51 W15       29.84F
AUGUSTA-DANIEL CLOUDY    40  23  50 W9        29.84S WCI  34
SWAINSBORO     CLOUDY    41  21  45 W14G25    29.88S
VIDALIA        CLOUDY    41  27  56 W13G24    29.89F
EASTMAN        PTSUNNY   44  23  42 W15G24    29.93F
HAZLEHURST     PTSUNNY   46  21  37 W8G24     29.89F
ALMA           PTSUNNY   45  23  42 W17G26    29.92F
WAYCROSS       SUNNY     50  26  39 W21G31    29.92F
JESUP          CLOUDY    50  30  46 W18G26    29.90F
BAXLEY         CLOUDY    45  23  42 W15G29    29.90F
BRUNSWICK      MOSUNNY   50  28  43 W21G31    29.92F
SAINT SIMONS   MOSUNNY   47  25  42 W22G33    29.91F

$$

SCZ027-028-034-036>038-045-046-048>050-GAZ119-141-091800-
...LAKE AND SUPPLEMENTAL COASTAL OBSERVATIONS...

STATION/POSITION TIME  TEMP    WIND        PRES    WAVE   SWELL
                       AIR SEA DIR/SP/G            HT/PER HT/PER/DIR
                 (UTC) (F)     (DEG/KT/KT) (MB)    (FT/S) (FT/S/D)
WINYAH BAY       1600   43     270/ 13     1008.0
LAKE MURRAY      1600   39     270/ 19/ 27 1008.1F
ACE BASIN NERRS  1645   44     260/  8     1010.0F
FORT PULASKI     1700   44 52  260/ 16/ 24 1011.4F
SAPELO ISLAND    1700   45     260/ 22     1012.0F

$$

ANZ835-935-AMZ111-154-330-350-352-354-370-450-454-472-091800-
...C-MAN AND BUOY OBSERVATIONS...

STATION/POSITION TIME  TEMP    WIND        PRES    WAVE   SWELL
                       AIR SEA DIR/SP/G            HT/PER HT/PER/DIR
                 (UTC) (F)     (DEG/KT/KT) (MB)    (FT/S) (FT/S/D)
BUOY 41004       1650   47 65  260/ 25/ 33 1008.5F   9/ 7   2/15
BUOY 41008       1650   45 55  260/ 23/ 31 1012.4F   5/ 5
FOLLY BEACH CMAN 1700   44     270/  8/ 14 1009.3F
CAPERS NEARSHORE 1608   45     280/ 19/ 23 1009.1F
FRIPP NEARSHORE  1600   45     260/ 17/ 21 1010.6F


STATION/POSITION TIME  TEMP    WIND        PRES    WAVE   SWELL
                       AIR SEA DIR/SP/G            HT/PER HT/PER/DIR
                 (UTC) (F)     (DEG/KT/KT) (MB)    (FT/S) (FT/S/D)
5E ST. MARYS GA  1621      56                N/A     4/ 4   2/ 80/18
FRYING PAN BUOY  1700   45 56  260/ 25/ 33 1007.5F
BUOY 41025       1650   47 73  280/ 21/ 27 1004.0R  12/15  11/ 80/15
CAPE LOOKOUT NC  NOT AVBL
BUOY 41002       1650   56 69  270/ 25/ 33   N/A    17/10  15/260/10
BUOY 41010       1620   58 72              1015.2S
ST AUGUSTINE FL  1700   51 57  260/ 20/ 27 1015.3F


$$



USA.gov is the U.S. government's official web portal to all federal, state and local government web resources and services.